STARLINK-5228 (54180 NORAD) Tracking and Keplerian Element Data

This shows tracking and keplerian element data for the satellite.

Feedback or suggestion? Click here.




ElementValue
Catalog54180
NameSTARLINK-5228
Epoch Orbit407
Epoch Day325.25001157
Epoch Year2022
RAAN24.0989
Inclination53.2183
Eccentricity0.0003003
Argument of Perigee14.9295
Mean Anonmoly11.8844
Mean Motion15.73184256
Decay Rate0.00030389
L11 54180U 22141Z 22325.25001157 .00030389 00000+0 22028-3 0 9992
L22 54180 53.2183 24.0989 0003003 14.9295 11.8844 15.73184256 4079



Live tracking and technical data element details for STARLINK-5228 (NORAD 54180). STARLINK-5228 can be tracked NOW for your location showing map with azimuth and elevation plus other details from your city location.







IsCatalogInMostPopularTable: catalog: 54180, numindb: 5
Update: records affected: 1



GetName: 54180 STARLINK-5228

Hit Count: updated at: Mon, 28 Nov 2022 21:59:13 GMT